Weather History for Akron, OH

Change the Weather History Date:

Friday, April 11, 2014

  Actual Average (KCAK) Record (KCAK)
Temperature  
Mean Temperature 52 °F 48 °F  
Max Temperature 61 °F 58 °F 87 °F (1930)
Min Temperature 44 °F 37 °F 20 °F (1909)
Degree Days  
Heating Degree Days 12 17  
Month to date heating degree days 213  
Since 1 July heating degree days 5608  
Cooling Degree Days 0 0  
Month to date cooling degree days 0  
Year to date cooling degree days 0  
Growing Degree Days 2 (Base 50)    
Moisture  
Dew Point 45 °F    
Average Humidity 82    
Maximum Humidity 93    
Minimum Humidity 39    
Precipitation  
Precipitation 0.31 in 0.12 in 1.04 in (1981)
Month to date precipitation 1.31  
Year to date precipitation 9.21  
Snow  
Snow 0.00 in 0.10 in - ()
Month to date snowfall 1.6  
Since 1 July snowfall 46.3  
Snow Depth -    
Sea Level Pressure  
Sea Level Pressure 30.00 in    
Wind  
Wind Speed 5 mph (NW)    
Max Wind Speed 9 mph    
Max Gust Speed -    
Visibility 7 miles    
Events Rain    
T = Trace of Precipitation, MM = Missing Value Source: NWS Daily Summary

Daily Weather History Graph

Daily Weather History Graph

Search for Another Location

Airport:

Trip Planner

Search our weather history database for the weather conditions in past years. The results will help you decide how hot, cold, wet, or windy it might be!

Date:

Astronomy

Apr. 11, 2014 Rise Set
Actual Time 6:52 AM EDT 8:01 PM EDT
Civil Twilight 6:24 AM EDT 8:29 PM EDT
Nautical Twilight 5:50 AM EDT 9:03 PM EDT
Astronomical Twilight 5:15 AM EDT 9:39 PM EDT
Moon 4:39 PM EDT (4/11) 4:49 AM EDT (4/11)
Length of Visible Light 14h 05m
Length of Day
13h 08m
Waxing Gibbous, 87% of the Moon is Illuminated
Apr 11
Waxing Gibbous
Apr 15
Full
Apr 22
Last Quarter
Apr 29
New
May 6
First Quarter

Hourly Weather History & Observations

Time (EDT) Temp. Windchill Dew Point Humidity Pressure Visibility Wind Dir Wind Speed Gust Speed Precip Events Conditions
12:30 AM 53.1 °F - 51.1 °F 93% 29.95 in 5.0 mi North 4.6 mph - 0.02 in Rain Light Rain
12:45 AM 53.1 °F - 51.1 °F 93% 29.95 in 4.0 mi NNW 6.9 mph - 0.04 in Rain Light Rain
12:54 AM 53.1 °F - 50.0 °F 89% 29.96 in 5.0 mi NW 6.9 mph - 0.05 in Rain Light Rain
1:11 AM 53.1 °F - 50.0 °F 89% 29.97 in 4.0 mi West 8.1 mph - 0.01 in Rain Light Rain
1:54 AM 53.1 °F - 50.0 °F 89% 29.96 in 4.0 mi West 3.5 mph - 0.08 in Rain Light Rain
2:11 AM 53.1 °F - 51.1 °F 93% 29.97 in 5.0 mi Calm Calm - 0.01 in Rain Light Rain
2:38 AM 53.1 °F - 50.0 °F 89% 29.97 in 6.0 mi NW 5.8 mph - 0.01 in Rain Light Rain
2:54 AM 53.1 °F - 50.0 °F 89% 29.96 in 8.0 mi NW 4.6 mph - 0.01 in   Overcast
3:09 AM 53.1 °F - 50.0 °F 89% 29.97 in 8.0 mi WNW 3.5 mph - N/A   Overcast
3:43 AM 52.0 °F - 50.0 °F 93% 29.98 in 5.0 mi West 5.8 mph - 0.00 in Rain Light Rain
3:54 AM 52.0 °F - 50.0 °F 93% 29.98 in 5.0 mi West 6.9 mph - 0.00 in Rain Light Rain
4:03 AM 52.0 °F - 50.0 °F 93% 29.98 in 4.0 mi WNW 3.5 mph - 0.00 in Rain Light Rain
4:54 AM 50.0 °F - 46.0 °F 86% 29.97 in 6.0 mi Calm Calm - 0.00 in Rain Light Rain
5:54 AM 50.0 °F - 46.0 °F 86% 29.97 in 9.0 mi SSE 5.8 mph - 0.00 in Rain Light Rain
6:54 AM 50.0 °F - 46.9 °F 89% 29.97 in 6.0 mi Calm Calm - 0.00 in   Overcast
7:54 AM 50.0 °F - 46.9 °F 89% 30.00 in 2.5 mi South 6.9 mph - 0.04 in Rain Light Rain
8:02 AM 48.9 °F - 46.9 °F 93% 30.01 in 3.0 mi SW 3.5 mph - 0.01 in Rain Light Rain
8:14 AM 48.9 °F - 46.0 °F 90% 30.04 in 2.5 mi WNW 6.9 mph - 0.03 in Rain Rain
8:24 AM 48.9 °F - 46.0 °F 90% 30.05 in 1.5 mi WNW 8.1 mph - 0.07 in Rain Rain
8:45 AM 48.9 °F - 46.0 °F 90% 30.04 in 3.0 mi WNW 6.9 mph - 0.11 in Rain Light Rain
8:50 AM 48.2 °F - 46.4 °F 93% 30.02 in 3.0 mi NW 5.8 mph - 0.11 in Rain Light Rain
8:54 AM 48.9 °F - 46.0 °F 90% 30.02 in 4.0 mi NNW 4.6 mph - 0.11 in Rain Light Rain
9:03 AM 48.0 °F - 45.0 °F 89% 30.02 in 6.0 mi North 8.1 mph - 0.00 in Rain Light Rain
9:54 AM 46.9 °F - 42.1 °F 83% 30.02 in 5.0 mi NNE 9.2 mph - 0.02 in Rain Light Rain
10:46 AM 46.9 °F - 41.0 °F 80% 30.02 in 10.0 mi East 3.5 mph - 0.00 in   Overcast
10:54 AM 46.9 °F - 41.0 °F 80% 30.01 in 10.0 mi ESE 4.6 mph - 0.00 in   Overcast
11:54 AM 46.9 °F - 41.0 °F 80% 30.02 in 10.0 mi ENE 5.8 mph - N/A   Overcast
12:54 PM 48.0 °F - 42.1 °F 80% 30.01 in 10.0 mi ESE 6.9 mph - N/A   Overcast
1:54 PM 48.9 °F - 44.1 °F 83% 30.01 in 10.0 mi SE 8.1 mph - N/A   Overcast
2:54 PM 52.0 °F - 45.0 °F 77% 30.02 in 10.0 mi NNE 4.6 mph - N/A   Overcast
3:11 PM 53.1 °F - 46.0 °F 77% 30.01 in 10.0 mi Variable 4.6 mph - N/A   Overcast
3:54 PM 57.0 °F - 46.9 °F 69% 30.00 in 10.0 mi Calm Calm - N/A   Partly Cloudy
4:54 PM 59.0 °F - 43.0 °F 55% 30.00 in 10.0 mi Variable 4.6 mph - N/A   Clear
5:54 PM 60.1 °F - 42.1 °F 51% 30.00 in 10.0 mi WSW 4.6 mph - N/A   Clear
6:54 PM 61.0 °F - 36.0 °F 39% 30.01 in 10.0 mi Calm Calm - N/A   Clear
7:54 PM 55.9 °F - 34.0 °F 44% 30.02 in 10.0 mi North 8.1 mph - N/A   Partly Cloudy
8:54 PM 51.1 °F - 41.0 °F 68% 30.05 in 10.0 mi Calm Calm - N/A   Clear
9:54 PM 46.9 °F - 41.0 °F 80% 30.09 in 10.0 mi Calm Calm - N/A   Clear
10:54 PM 44.1 °F - 39.9 °F 85% 30.09 in 10.0 mi Calm Calm - N/A   Clear
11:54 PM 45.0 °F 42.6 °F 41.0 °F 86% 30.09 in 10.0 mi South 4.6 mph - N/A   Clear